Flag for U.S.A. Weather past 2 weeks in Warminster Township, Pennsylvania, U.S.A.

Now
52 °F

Overcast.


Feels Like: 50 °F
Forecast: 47 / 62 °F
Wind: 7 mph from Northwest

Location: Doylestown Airport

Current Time: Oct 24, 2014 at 4:18:10 AM

Latest Report: Oct 24, 2014 at 3:54 AM


Visibility: 10 mi

Pressure: 29.83 "Hg

Humidity: 77%

Dew point: 45 °F

Location of Warminster TownshipLocation

Historic Weather in Warminster Township — Graph

°F

Warminster Township temperature yesterday

Maximum temperature yesterday: 53 °F (at 4:01 PM)
Minimum temperature yesterday: 48 °F (at 7:54 AM)
Average temperature yesterday: 50 °F

Past Weeks' High & Low Weather Summary

 TemperatureHumidityPressure
High75 °F (Oct 14, 2:54 PM)100% (Oct 11, 3:54 AM)30.33 "Hg (Oct 11, 3:54 AM)
Low31 °F (Oct 20, 6:54 AM)31% (Oct 9, 2:54 PM)29.59 "Hg (Oct 18, 4:54 AM)
Average56 °F80%29.96 "Hg
* Reported Oct 9 2:54 AM — Oct 24 2:54 AM, Warminster Township, Weather by CustomWeather, © 2014

Note: Actual official high and low records may vary slightly from our data, if they occured in-between our weather recording intervals... More about our weather records

Advertising

Warminster Township weather history for previous 24 hours

 ConditionsComfort  
Time TempWeatherWind HumidityBarometerVisibility
2:54 AM
Oct 24
51 °FOvercast.3 mph80%29.82 "Hg10 mi
1:54 AM50 °FPassing clouds.7 mph80%29.81 "Hg10 mi
12:54 AM50 °FPassing clouds.7 mph80%29.81 "Hg10 mi
11:54 PM
Oct 23
50 °FOvercast.7 mph80%29.82 "Hg10 mi
10:54 PM50 °FOvercast.9 mph80%29.84 "Hg10 mi
9:54 PM51 °FOvercast.10 mph74%29.84 "Hg10 mi
8:54 PM51 °FPassing clouds.10 mph74%29.84 "Hg10 mi
7:54 PM51 °FMostly cloudy.12 mph74%29.81 "Hg10 mi
6:54 PM51 °FOvercast.13 mph77%29.81 "Hg10 mi
5:54 PM52 °FMore clouds than sun.13 mph75%29.80 "Hg10 mi
4:54 PM53 °FMostly cloudy.13 mph72%29.77 "Hg10 mi
4:01 PM53 °FMostly cloudy.18 mph72%29.76 "Hg10 mi
2:54 PM51 °FMore clouds than sun.14 mph80%29.76 "Hg10 mi
1:54 PM52 °FMore clouds than sun.14 mph77%29.76 "Hg10 mi
12:54 PM52 °FOvercast.9 mph77%29.76 "Hg10 mi
11:54 AM50 °FLight rain. Overcast.10 mph86%29.78 "Hg10 mi
10:54 AM50 °FLight rain. Mostly cloudy.13 mph89%29.77 "Hg10 mi
9:54 AM48 °FLight rain. Mostly cloudy.7 mph93%29.78 "Hg10 mi
9:04 AM48 °FLight rain. More clouds than sun.8 mph93%29.76 "Hg9 mi
8:54 AM48 °FLight rain. Cloudy.10 mph93%29.77 "Hg8 mi
7:54 AM48 °FOvercast.10 mph93%29.76 "Hg10 mi
6:54 AM49 °FMostly cloudy.8 mph90%29.76 "Hg10 mi
5:54 AM49 °FLight rain. Mostly cloudy.10 mph90%29.76 "Hg10 mi
4:54 AM50 °FOvercast.15 mph83%29.75 "Hg10 mi
Weather by CustomWeather, © 2014

See weather overviewHow to use our weather pages